Weather in Zielona Gora

Poland     51°56′13″N   15°30′20″E
temp.,
°C
wind,
m/s
gust,
m/s
humid.,
%
clouds,
%
prec.,
mm/h
press.,
hPa
HPBL,
m
23 april, fri
fri2323:00+3w3109248 0.2 1021382
02:00+3w4109735 0.3 1021368
05:00+2w4109754 0.0 1022404
08:00+3w5888100 0.0 1023555
11:00+4w5780100 0.0 1024857
14:00+7wnw576468 0.0 10251119
17:00+11wnw5943100 0.0 10232262
20:00+7wnw226277 0.0 102330
24 april, sat
sat2423:00+6wnw397190 0.0 1024319
02:00+4wnw388069 0.0 1024210
05:00+3wnw278684 0.0 1024248
08:00+5w477817 0.0 1025458
11:00+9wnw5654100 0.0 10241586
14:00+12wnw6842100 0.0 10232110
17:00+12nw584094 0.0 10222242
20:00+7nnw386494 0.0 1023254
25 april, sun
sun2523:00+3n267624 0.0 1024146
02:00+1nw22660 0.0 102521
05:00−1wnw23670 0.0 102545
08:00+3nw35580 0.0 1025335
11:00+9nw34345 0.0 10252188
14:00+11nw3530100 0.0 10232663
17:00+11nnw463289 0.0 10232429
20:00+6nne245851 0.0 102378
26 april, mon
mon2623:00+3ne116899 0.0 102313
02:00+1sse227121 0.0 102214
05:000s117551 0.0 102114
08:00+4ene116112 0.0 1021234
11:00+10n13445 0.0 10191567
14:00+12nnw243067 0.0 10172503
17:00+12n232780 0.0 10162385
20:00+7ene22534 0.0 101527
27 april, tue
tue2723:00+3e2365100 0.0 101557
02:00+2e366993 0.0 1015135
05:00+1e3875100 0.0 1013166
08:00+5ese4959100 0.0 1012321
11:00+10ese5742100 0.0 10111211
14:00+12e5638100 0.0 10081630
17:00+11e5644100 0.0 10071626
20:00+8ene3960100 0.0 1006355